Find Starlink 33690

NORAD ID: 63406 Int'l Des: 2025-065 Owner: SPXS Country: US Constellation: starlink operational
LEOCIRCULAR

实时位置

正在加载3D地球...

关于 Starlink 33690

正在加载描述...

即将过境

Passes for default location (London). Set your location on the main map for personalized predictions.

高度历史

Loading altitude history...

两行轨道根数

1 63406U 25065H 26123.27381130 .00022100 00000-0 81018-3 0 9992
2 63406 43.0018 154.8650 0001384 266.5157 93.5537 15.27581848 61237
Epoch: May 3, 2026 • Age: 18 hours

当前状态

高度 486.9 km
速度 7.62 km/s
星下点 -19.96°S, 120.24°E
发射日期 Mar 31, 2025
运行时间 1 years
类型 internet

技术详情

分类 Payload
质量 575.00 kg
干质量 530.00 kg
总质量 575.00 kg
长度 0.30 m
直径 4.10 m
跨度 29.00 m
形状 Box + pan
制造商 SPXS
平台类型 Starlink V2MO
阶段状态 In Orbit
所有者/国家 SPXS/US

Most Searched